Wind_Speed
17 15 17 14 7 2 5 10 16 11 13 15 21 25 26 26 12 9 9 8 7 13 10 9 9 10 10 9 8 8 7 5 4 3 2 2 3 3 3 4 5 5 6 6 7 6 6 6 7
17 17 13 11 9 4 2 17 32 13 14 19 16 24 22 20 21 15 15 11 12 8 4 8 8 9 9 8 8 8 7 5 4 3 3 3 3 4 3 3 4 4 5 5 5 5 5 7 8
19 14 13 6 14 10 6 11 32 15 11 18 14 19 11 12 20 13 15 14 10 5 7 8 7 7 8 8 7 7 6 5 3 2 1 1 2 3 4 5 6 7 7 7 8 8 9 10 11
10 14 14 11 9 13 6 19 14 28 12 19 20 14 13 12 12 12 14 11 16 11 8 8 7 7 6 6 6 5 5 3 2 1 2 3 4 5 7 8 9 10 11 11 12 12 12 12 13
16 16 13 20 16 12 5 6 36 18 15 19 19 15 19 18 17 15 14 15 14 9 10 10 9 7 7 6 5 4 3 3 4 5 6 7 8 9 9 9 9 9 10 10 11 11 12 13 14
17 21 16 6 10 8 20 27 34 22 28 26 24 23 20 17 14 14 14 14 13 9 8 15 13 12 10 8 8 7 7 7 7 7 8 9 10 11 12 11 12 13 13 14 14 15 15 16 16
16 13 19 23 11 9 15 32 7 26 9 20 24 20 16 19 15 15 15 13 11 10 7 13 15 12 11 12 11 11 10 10 9 8 8 10 13 12 15 16 15 12 16 16 16 18 19 18 18
21 13 22 21 15 10 17 18 16 40 14 14 10 10 18 17 16 16 15 15 18 18 17 15 10 7 14 14 16 14 14 12 10 8 8 10 13 13 15 17 18 21 16 14 12 15 16 15 15
21 13 14 21 19 14 20 16 16 21 22 23 23 27 24 19 16 15 16 14 14 16 15 8 13 13 10 10 13 11 11 10 12 14 11 9 10 8 8 13 15 18 15 13 13 14 14 13 12
20 13 20 21 21 10 24 20 20 21 23 21 25 24 21 18 13 17 13 10 10 11 8 7 10 12 8 9 10 8 8 7 12 16 9 3 6 6 5 7 12 13 15 16 10 12 13 11 12
23 16 20 21 19 12 7 24 15 11 15 20 24 23 18 18 15 15 13 13 11 9 9 4 8 7 10 8 1 5 9 11 7 14 16 8 10 10 10 4 3 10 9 10 12 13 15 11 12
18 22 23 27 14 5 5 29 17 24 18 23 24 20 18 17 14 13 13 11 13 10 4 1 1 1 2 6 1 1 8 7 7 11 14 11 6 12 10 8 5 6 9 10 12 9 9 10 11
14 17 19 18 13 10 8 17 20 26 21 21 24 19 18 17 15 13 11 10 9 7 1 3 3 3 2 2 3 4 2 5 5 12 17 17 14 15 14 10 9 9 15 14 14 13 15 15 10
13 13 18 11 11 11 12 23 12 15 16 19 21 19 17 16 14 14 12 9 8 4 9 9 4 3 3 5 5 5 6 7 8 9 17 15 14 14 13 9 9 10 18 16 15 15 18 15 10
15 11 10 12 15 12 10 7 8 19 16 17 18 17 16 14 13 12 11 8 3 8 11 10 12 8 8 8 8 8 10 8 10 11 12 18 15 14 13 9 9 16 17 12 13 16 16 15 14
11 11 12 15 13 19 16 14 18 22 20 18 17 17 16 14 13 12 11 10 11 10 8 9 8 9 11 12 14 17 19 15 12 11 12 19 16 17 15 10 10 20 15 11 14 17 19 17 17
13 14 20 17 18 14 20 6 16 23 22 20 19 18 18 15 13 12 11 12 12 10 10 10 10 12 11 14 11 6 11 11 12 12 16 21 17 15 19 11 13 18 12 12 15 19 18 17 16
16 16 17 16 17 17 17 13 18 21 23 22 21 19 18 15 14 13 13 13 12 11 11 11 11 11 11 10 9 8 6 6 9 10 17 20 18 15 18 13 14 13 13 12 15 15 14 12 16
19 15 15 16 17 15 20 18 21 24 23 25 23 22 19 17 15 14 13 12 12 11 11 11 9 11 12 13 13 13 9 11 9 9 17 11 18 13 11 11 9 11 10 12 15 19 12 15 15
21 16 15 14 22 14 13 18 17 18 21 25 25 25 22 20 17 15 14 12 11 11 10 9 7 9 13 14 13 13 11 9 6 10 10 13 10 14 16 15 13 9 8 14 13 12 13 11 17
17 15 15 13 11 8 12 15 14 17 22 24 23 23 23 22 18 16 14 12 11 10 8 7 7 10 13 14 14 12 7 5 8 9 11 13 13 16 16 11 10 11 6 10 10 12 13 11 11
15 15 18 9 6 10 11 15 23 27 22 17 23 22 24 23 19 17 15 13 11 10 8 5 6 9 13 16 14 10 7 8 9 7 11 11 16 14 10 6 10 9 9 11 12 10 10 13 14
15 17 17 8 13 9 9 9 18 18 14 14 15 20 22 21 20 18 16 14 12 10 7 4 6 10 13 14 15 11 10 8 8 12 13 10 9 11 10 7 9 12 10 13 15 14 17 12 8
14 16 11 10 10 13 21 17 7 5 7 7 18 26 26 25 23 19 16 16 13 10 8 6 5 8 11 10 12 13 11 11 13 14 16 15 13 11 10 11 14 14 11 12 14 13 17 17 17
15 10 7 11 12 14 13 12 7 17 27 25 33 29 31 27 25 22 22 17 15 12 9 5 4 5 8 7 9 9 10 10 12 16 19 18 17 14 14 18 17 16 13 14 13 9 12 11 15
13 13 11 12 7 6 11 8 9 19 25 33 36 31 28 29 24 23 23 18 15 13 8 6 3 4 6 1 6 9 7 10 12 17 19 18 18 20 17 15 15 13 13 14 12 15 14 15 14
13 15 18 14 12 10 6 16 15 13 12 8 12 25 29 26 23 22 22 18 17 14 10 7 5 5 5 4 6 9 9 14 18 16 14 12 12 12 13 12 12 13 16 12 13 16 16 15 14
15 10 13 8 12 14 9 4 5 4 13 10 9 28 26 20 20 20 22 19 19 14 12 8 7 6 5 2 5 7 9 10 12 11 9 11 11 10 10 10 11 11 12 13 13 10 14 14 14
14 8 9 7 2 8 6 1 5 6 11 14 16 18 26 23 23 22 21 19 15 14 10 8 6 6 5 2 6 7 7 5 7 8 9 10 12 11 10 10 10 11 12 12 11 12 12 13 13
17 17 14 9 9 5 3 3 11 10 3 2 5 17 24 24 22 24 21 20 16 14 12 9 8 7 6 3 6 8 8 6 7 7 7 8 9 12 10 10 10 8 6 6 6 8 12 13 14
Wind_Direction
314 317 334 288 247 24 41 267 298 95 85 65 77 83 70 53 41 101 112 108 95 73 75 83 92 92 87 82 84 87 86 83 73 55 38 27 21 14 7 358 354 355 351 343 338 336 331 325 320
309 305 287 267 250 227 76 57 291 83 110 103 72 98 84 69 85 100 112 105 87 100 64 74 86 88 86 79 75 73 78 85 84 68 35 18 12 1 350 338 326 323 321 320 318 314 311 312 313
303 310 286 234 235 78 312 182 226 91 68 102 95 62 65 81 67 108 107 103 101 82 53 92 95 91 86 81 77 80 82 85 87 92 125 227 263 275 284 287 294 302 307 308 305 301 302 303 305
300 304 242 257 265 155 197 228 121 48 44 103 112 75 84 84 98 106 110 103 118 90 67 83 89 83 81 82 85 86 93 101 118 190 266 275 289 302 309 316 320 320 319 317 314 311 309 307 305
281 268 271 262 40 6 323 131 85 50 66 85 88 97 101 103 106 107 108 106 87 67 58 66 67 65 62 63 66 62 52 31 13 357 353 354 352 348 346 344 339 333 324 315 310 309 308 306 304
281 267 267 308 67 49 296 353 116 150 109 106 104 102 101 115 111 111 100 94 100 96 40 56 56 56 57 55 55 47 35 27 16 13 13 17 15 7 352 340 332 328 326 321 316 312 309 307 304
258 279 282 290 151 154 264 344 44 70 338 101 118 105 123 119 113 113 107 106 109 110 84 49 39 40 66 50 44 40 32 26 24 22 18 20 6 4 359 339 326 331 320 314 314 311 307 302 300
261 276 287 287 198 180 175 176 297 160 92 81 141 131 119 123 124 118 115 108 93 100 112 84 31 36 41 62 31 29 26 20 15 359 351 23 354 355 349 332 336 335 329 334 354 354 342 327 322
260 271 270 278 292 144 159 159 171 107 91 75 77 118 129 128 129 127 118 90 67 74 92 99 85 42 79 52 18 25 17 1 349 329 336 34 320 331 316 320 341 354 6 4 355 360 8 1 360
246 254 262 274 287 154 176 186 119 106 105 101 98 111 124 133 120 115 98 101 75 67 134 105 144 108 50 14 35 40 68 13 341 324 340 10 332 288 298 319 339 349 350 353 346 342 340 338 339
235 243 258 257 288 315 81 64 43 111 119 125 123 125 124 116 104 104 92 95 95 75 75 123 181 153 121 46 273 9 324 317 346 312 326 342 1 319 286 235 325 324 330 324 343 334 326 313 324
228 242 252 270 316 267 304 106 116 232 72 130 127 123 120 121 118 114 110 86 95 91 126 204 198 136 116 94 236 99 358 330 325 324 330 354 337 324 340 320 329 323 316 291 284 276 296 301 293
237 244 247 263 288 246 260 99 101 107 131 132 129 127 126 125 125 121 119 115 111 134 140 9 46 68 48 251 55 326 50 359 11 326 329 332 329 324 326 328 343 320 286 275 296 299 285 282 279
227 246 258 235 235 231 212 119 105 123 135 129 129 128 128 131 128 125 122 123 134 126 60 69 33 43 352 13 21 353 350 348 332 329 328 337 338 325 320 327 313 311 285 308 316 316 304 302 293
232 219 234 231 206 216 181 142 140 142 144 138 135 136 135 133 124 121 123 114 121 109 97 61 23 51 54 52 40 24 14 6 357 359 336 323 333 327 326 319 335 289 301 315 327 308 300 293 286
236 240 234 209 213 222 187 190 139 154 159 158 154 149 146 137 131 126 125 120 113 111 105 124 80 66 51 45 26 18 7 5 347 350 323 314 335 328 327 332 334 298 323 351 311 300 297 305 303
222 235 225 214 197 196 204 150 149 169 173 170 165 160 150 138 134 130 127 123 127 132 111 100 88 73 64 56 52 22 351 347 336 336 308 322 327 332 327 350 321 318 344 335 308 304 323 320 328
217 222 251 193 186 210 187 222 162 186 183 179 173 169 162 156 148 140 135 126 125 122 117 104 89 75 60 49 27 17 339 326 329 330 319 336 342 346 342 357 336 347 341 333 308 330 337 345 336
256 240 224 232 154 209 205 166 173 183 195 180 183 178 172 164 153 147 140 131 125 127 122 113 94 59 40 28 16 8 13 349 336 347 331 338 346 352 350 323 324 325 348 330 320 333 336 9 330
259 272 267 114 169 201 226 165 163 186 204 199 187 179 173 153 159 157 151 142 134 132 127 117 79 47 31 25 10 15 23 2 355 334 343 320 323 327 328 331 343 340 349 352 348 1 11 11 13
239 252 270 159 172 229 261 219 114 241 218 207 194 185 176 165 170 167 162 154 142 133 129 110 64 29 23 23 6 23 35 18 349 4 315 330 322 325 340 1 16 28 6 7 16 9 22 14 26
252 230 259 234 178 229 238 247 178 184 197 207 201 187 171 168 174 174 170 163 156 143 132 108 58 40 18 12 10 20 32 15 355 337 328 341 342 341 352 17 20 16 16 27 18 12 27 21 23
243 233 236 163 217 243 214 234 259 205 185 194 211 204 170 174 176 178 175 171 164 152 141 103 46 28 20 15 356 11 28 22 6 10 14 346 7 10 11 14 40 29 24 27 28 33 28 21 12
219 265 191 254 245 236 242 213 283 63 39 82 254 209 186 174 170 176 179 168 167 164 143 113 43 26 24 24 348 26 41 41 33 33 34 31 38 39 55 43 41 40 45 42 37 33 28 26 25
217 215 207 220 234 239 289 191 213 157 186 177 214 198 185 171 168 174 168 169 172 168 154 131 105 46 26 38 352 52 52 41 42 47 48 43 47 49 51 53 47 41 31 38 24 49 33 41 14
200 215 237 224 286 317 303 294 164 175 191 201 207 188 168 164 178 175 171 172 177 168 163 147 117 65 48 106 13 62 59 50 65 54 51 45 44 49 46 44 38 30 24 51 28 50 47 39 28
201 230 241 268 286 214 179 274 124 122 107 108 120 137 155 172 172 172 167 175 176 167 167 160 135 87 90 20 26 73 70 74 69 57 48 37 34 35 28 31 32 25 28 57 48 30 37 35 33
232 210 233 238 264 281 281 100 87 172 141 124 129 156 151 163 168 174 168 172 169 163 166 166 138 118 128 75 78 85 64 46 42 50 46 34 37 33 31 31 30 28 27 24 29 21 21 15 13
229 227 256 237 301 280 295 309 271 223 152 169 172 171 152 164 172 172 167 169 165 166 170 161 140 132 129 85 92 99 80 71 71 54 48 40 28 28 29 25 29 26 16 21 14 13 5 6 7
243 228 228 256 236 251 30 116 5 12 94 66 59 155 160 164 172 167 169 170 173 178 171 165 162 152 156 129 115 91 87 73 61 54 42 33 26 16 27 27 28 14 3 348 353 13 14 4 3
Height
1499 1496 1496 1500 1501 1494 1515 1520 1494 1477 1477 1480 1480 1489 1503 1506 1507 1526 1526 1529 1529 1529 1528 1529 1530 1531 1532 1534 1534 1535 1536 1537 1538 1539 1539 1539 1539 1540 1540 1540 1540 1540 1540 1540 1539 1539 1539 1538 1538
1498 1496 1498 1495 1494 1494 1505 1506 1513 1478 1481 1481 1482 1488 1500 1512 1517 1523 1528 1531 1531 1530 1530 1530 1532 1533 1534 1535 1536 1537 1537 1538 1538 1539 1540 1540 1540 1540 1540 1540 1540 1540 1539 1539 1539 1538 1538 1537 1537
1498 1496 1498 1482 1479 1512 1517 1503 1503 1480 1483 1481 1486 1494 1503 1517 1520 1525 1528 1531 1532 1530 1530 1531 1533 1534 1535 1536 1537 1537 1538 1539 1540 1540 1540 1540 1540 1539 1539 1539 1539 1539 1539 1539 1538 1538 1538 1537 1536
1500 1496 1493 1482 1474 1509 1514 1485 1472 1486 1489 1484 1491 1500 1511 1518 1521 1525 1529 1530 1531 1531 1532 1533 1535 1536 1536 1537 1537 1538 1539 1539 1540 1540 1540 1540 1540 1540 1540 1540 1540 1540 1539 1539 1538 1538 1537 1536 1536
1501 1496 1488 1477 1486 1491 1498 1459 1484 1497 1492 1492 1502 1510 1512 1518 1521 1525 1528 1531 1534 1533 1534 1535 1536 1537 1538 1538 1539 1540 1540 1541 1541 1542 1542 1542 1542 1542 1541 1541 1540 1539 1539 1538 1537 1536 1535 1534 1534
1500 1490 1491 1489 1510 1509 1490 1484 1486 1491 1487 1501 1508 1508 1515 1518 1522 1526 1529 1533 1536 1535 1536 1537 1539 1540 1540 1540 1541 1542 1542 1542 1543 1543 1543 1543 1543 1542 1541 1540 1539 1539 1538 1537 1536 1535 1534 1533 1532
1498 1489 1483 1472 1499 1507 1504 1494 1490 1492 1495 1494 1502 1506 1516 1520 1524 1528 1532 1534 1536 1537 1537 1538 1541 1542 1543 1542 1543 1544 1544 1544 1544 1544 1544 1543 1543 1542 1541 1540 1538 1538 1537 1535 1534 1533 1531 1530 1529
1496 1488 1485 1471 1479 1500 1500 1493 1501 1505 1496 1495 1496 1506 1515 1521 1525 1529 1532 1535 1538 1537 1541 1545 1544 1542 1546 1546 1545 1546 1545 1545 1544 1543 1543 1544 1543 1542 1541 1539 1537 1536 1534 1533 1532 1531 1529 1528 1528
1494 1492 1491 1475 1465 1479 1482 1490 1486 1490 1493 1501 1500 1504 1515 1521 1526 1529 1532 1534 1537 1541 1544 1545 1546 1546 1546 1546 1547 1547 1546 1545 1544 1544 1543 1543 1543 1542 1542 1540 1539 1538 1535 1534 1532 1531 1530 1529 1527
1491 1492 1484 1471 1462 1461 1468 1475 1482 1491 1496 1508 1509 1512 1517 1522 1526 1529 1533 1536 1539 1542 1542 1544 1544 1546 1549 1549 1549 1547 1547 1545 1544 1541 1542 1541 1541 1539 1539 1538 1538 1536 1535 1533 1531 1531 1529 1528 1527
1486 1488 1478 1470 1465 1463 1463 1477 1488 1491 1502 1508 1512 1515 1517 1522 1528 1532 1536 1539 1541 1543 1544 1544 1544 1546 1547 1549 1548 1547 1546 1546 1545 1540 1540 1539 1539 1537 1537 1536 1535 1535 1533 1533 1531 1530 1528 1527 1526
1483 1480 1477 1471 1468 1468 1469 1484 1518 1524 1512 1508 1512 1517 1520 1526 1531 1535 1539 1540 1544 1545 1544 1544 1545 1545 1546 1546 1545 1545 1545 1545 1544 1540 1538 1538 1536 1535 1534 1533 1533 1532 1532 1530 1528 1526 1525 1524 1523
1478 1476 1473 1472 1473 1472 1473 1478 1493 1506 1516 1514 1513 1518 1522 1527 1532 1536 1540 1543 1544 1543 1544 1544 1544 1544 1543 1543 1543 1543 1544 1543 1543 1540 1537 1536 1535 1533 1532 1532 1531 1531 1527 1527 1524 1524 1521 1521 1519
1472 1475 1471 1473 1475 1475 1474 1483 1489 1508 1514 1513 1513 1518 1524 1529 1534 1537 1540 1542 1541 1543 1543 1544 1542 1542 1542 1543 1543 1543 1543 1542 1541 1539 1536 1534 1533 1531 1530 1530 1529 1528 1524 1524 1522 1520 1518 1516 1516
1472 1474 1471 1473 1475 1477 1478 1487 1488 1503 1510 1513 1515 1521 1526 1531 1534 1537 1540 1541 1541 1542 1544 1546 1543 1542 1542 1542 1542 1542 1542 1541 1539 1538 1536 1532 1531 1529 1528 1526 1527 1523 1522 1520 1520 1518 1515 1513 1511
1472 1474 1479 1468 1472 1475 1477 1492 1492 1501 1508 1514 1518 1523 1527 1531 1535 1538 1539 1541 1541 1541 1542 1542 1544 1543 1543 1542 1541 1541 1541 1540 1538 1537 1534 1530 1529 1526 1525 1524 1524 1520 1520 1518 1517 1514 1511 1509 1507
1474 1480 1474 1464 1465 1470 1475 1489 1496 1500 1505 1512 1517 1522 1526 1531 1535 1537 1539 1539 1539 1539 1540 1541 1542 1543 1543 1542 1542 1543 1542 1541 1538 1536 1531 1529 1527 1525 1523 1522 1521 1519 1518 1517 1514 1511 1510 1507 1505
1476 1475 1463 1462 1464 1466 1472 1480 1493 1499 1501 1506 1513 1519 1525 1530 1534 1537 1538 1538 1538 1539 1540 1541 1542 1542 1542 1542 1542 1541 1540 1539 1537 1534 1531 1528 1526 1524 1522 1521 1520 1519 1517 1515 1512 1510 1508 1506 1504
1455 1455 1457 1447 1454 1470 1467 1476 1487 1497 1498 1501 1507 1514 1522 1529 1534 1537 1538 1539 1539 1539 1540 1541 1542 1542 1542 1541 1540 1539 1538 1537 1536 1535 1531 1528 1526 1523 1521 1519 1517 1516 1515 1513 1511 1508 1506 1505 1501
1457 1457 1452 1448 1455 1464 1462 1474 1489 1497 1498 1497 1501 1508 1517 1526 1533 1536 1538 1540 1540 1539 1540 1540 1541 1542 1541 1540 1539 1537 1537 1537 1536 1534 1531 1526 1524 1523 1521 1519 1517 1515 1515 1513 1511 1509 1506 1504 1503
1458 1460 1453 1455 1457 1460 1465 1474 1493 1503 1500 1497 1497 1504 1512 1522 1531 1535 1538 1539 1540 1540 1540 1540 1540 1540 1540 1539 1538 1536 1536 1536 1534 1533 1528 1524 1522 1522 1521 1519 1518 1516 1515 1513 1511 1510 1507 1506 1505
1465 1453 1451 1451 1463 1481 1463 1487 1485 1481 1490 1495 1496 1501 1511 1519 1527 1533 1537 1539 1540 1541 1540 1539 1539 1540 1539 1537 1536 1535 1533 1533 1532 1530 1527 1524 1522 1521 1520 1519 1517 1516 1515 1513 1512 1511 1509 1507 1506
1459 1447 1451 1453 1463 1468 1474 1483 1464 1461 1475 1494 1501 1499 1507 1517 1524 1530 1535 1538 1540 1541 1540 1539 1539 1539 1538 1536 1534 1533 1531 1532 1530 1528 1526 1524 1523 1521 1520 1519 1518 1516 1516 1515 1513 1512 1510 1509 1508
1448 1448 1448 1455 1459 1480 1461 1470 1468 1483 1497 1503 1501 1494 1500 1509 1518 1526 1532 1536 1539 1540 1541 1540 1539 1538 1537 1536 1533 1532 1532 1531 1530 1528 1527 1525 1524 1523 1522 1521 1519 1518 1518 1517 1516 1514 1513 1511 1510
1446 1458 1480 1485 1479 1475 1449 1463 1457 1481 1486 1484 1484 1482 1490 1506 1513 1518 1527 1533 1537 1540 1541 1540 1540 1538 1537 1536 1533 1532 1532 1532 1531 1530 1528 1528 1526 1525 1524 1523 1523 1522 1520 1519 1518 1516 1515 1513 1512
1447 1455 1469 1491 1488 1485 1468 1470 1482 1471 1474 1476 1476 1477 1492 1494 1514 1514 1523 1530 1535 1537 1539 1540 1539 1538 1537 1535 1534 1532 1533 1533 1532 1532 1530 1530 1529 1529 1528 1527 1525 1524 1522 1521 1519 1518 1517 1516 1514
1450 1460 1445 1460 1456 1472 1485 1472 1458 1462 1466 1468 1468 1480 1493 1507 1508 1512 1521 1527 1532 1535 1538 1539 1539 1537 1537 1535 1533 1533 1534 1533 1533 1533 1532 1532 1532 1531 1530 1529 1528 1526 1524 1523 1522 1520 1519 1517 1516
1439 1440 1462 1457 1487 1487 1461 1465 1479 1466 1466 1470 1473 1478 1488 1498 1505 1513 1519 1526 1528 1533 1536 1537 1537 1537 1537 1535 1534 1534 1535 1535 1535 1535 1535 1533 1533 1532 1531 1530 1529 1528 1526 1525 1523 1522 1520 1519 1517
1445 1449 1449 1448 1464 1481 1488 1485 1460 1458 1459 1465 1470 1475 1482 1492 1501 1511 1518 1524 1527 1532 1534 1536 1536 1537 1537 1534 1534 1535 1536 1537 1537 1536 1535 1535 1534 1533 1532 1531 1530 1529 1527 1526 1524 1523 1521 1519 1518
1435 1443 1446 1463 1470 1461 1475 1486 1463 1458 1460 1465 1468 1474 1481 1489 1497 1506 1514 1521 1526 1531 1533 1535 1536 1536 1536 1534 1535 1535 1537 1538 1537 1537 1537 1536 1535 1533 1532 1532 1530 1529 1527 1525 1524 1522 1521 1520 1518